EDT,Max TemperatureF,Mean TemperatureF,Min TemperatureF,Max Dew PointF,MeanDew PointF,Min DewpointF,Max Humidity, Mean Humidity, Min Humidity, Max Sea Level PressureIn, Mean Sea Level PressureIn, Min Sea Level PressureIn, Max VisibilityMiles, Mean VisibilityMiles, Min VisibilityMiles, Max Wind SpeedMPH, Mean Wind SpeedMPH, Max Gust SpeedMPH,PrecipitationIn, CloudCover, Events, WindDirDegrees
2013-3-1,64,60,55,52,43,34,68,54,32,30.01,29.97,29.93,10,10,7,12,8,18,0.00,4,,299
2013-3-2,62,56,50,39,35,25,58,50,26,30.06,30.02,29.98,10,9,7,21,10,22,0.00,5,,307
2013-3-3,62,52,42,39,34,28,81,57,30,30.18,30.06,29.99,10,9,7,20,7,24,0.00,1,,290
2013-3-4,59,50,42,45,33,19,87,56,25,30.25,30.19,30.14,10,10,10,15,9,25,0.00,0,,347
2013-3-5,75,60,44,55,49,36,93,72,37,30.20,30.14,30.09,10,10,10,16,3,22,0.00,0,,184
2013-3-6,78,64,51,63,42,16,88,58,12,30.12,30.05,29.98,10,10,4,20,9,28,0.00,1,Rain,262
2013-3-7,66,56,46,54,42,32,94,64,50,30.21,30.16,30.10,10,10,7,13,9,20,0.00,0,,335
2013-3-8,68,60,51,54,47,37,94,68,35,30.24,30.19,30.15,10,10,6,14,5,17,0.00,0,,353
2013-3-9,71,62,53,55,50,46,88,63,43,30.23,30.18,30.13,10,9,5,14,6,17,0.00,3,,28
2013-3-10,75,70,66,57,52,46,64,55,41,30.19,30.14,30.10,10,10,7,18,9,21,0.00,6,,94
2013-3-11,77,72,66,61,57,54,78,64,47,30.14,30.06,29.98,10,9,7,20,11,26,0.00,3,,135
2013-3-12,80,73,66,68,63,59,88,76,48,30.02,29.98,29.92,10,9,1,15,7,23,0.00,4,,202
2013-3-13,68,62,53,63,53,45,94,73,43,30.15,30.08,30.01,10,9,7,17,8,26,0.00,3,,330
2013-3-14,64,57,50,52,46,39,88,68,40,30.24,30.18,30.13,10,10,7,17,7,23,0.00,0,,329
2013-3-15,66,58,50,52,46,41,94,69,49,30.28,30.23,30.19,10,10,10,14,5,17,0.00,0,,342
2013-3-16,73,60,46,54,48,37,100,71,29,30.22,30.17,30.10,10,9,1,16,2,22,0.00,0,,166
2013-3-17,77,65,53,59,54,50,94,71,44,30.17,30.11,30.06,10,9,6,17,5,,0.00,1,,180
2013-3-18,80,73,66,68,62,59,94,79,57,30.10,30.04,29.97,10,9,4,16,4,22,0.02,3,Rain-Thunderstorm,181
2013-3-19,77,70,64,66,63,59,94,84,54,30.02,29.96,29.92,10,9,5,8,3,,0.00,1,,314
2013-3-20,82,71,60,66,60,48,100,79,30,29.98,29.93,29.83,10,8,5,20,4,26,0.00,3,Rain,258
2013-3-21,68,62,55,61,50,36,94,69,30,29.97,29.91,29.86,10,10,7,14,8,20,0.00,2,,323
2013-3-22,77,64,50,68,54,46,94,77,43,30.04,29.97,29.93,10,9,5,16,2,23,0.03,3,Rain-Thunderstorm,122
2013-3-23,89,79,69,73,66,57,100,75,36,30.00,29.93,29.81,10,9,5,16,3,23,0.00,5,Thunderstorm,228
2013-3-24,89,79,69,73,68,63,100,80,40,29.90,29.80,29.69,10,8,5,28,7,43,0.00,5,Rain-Thunderstorm,209
2013-3-25,77,68,60,72,52,21,100,62,14,30.02,29.86,29.76,10,8,5,15,8,21,0.00,3,,283
2013-3-26,66,58,50,37,28,19,54,36,17,30.24,30.11,30.02,10,10,7,17,11,28,0.00,1,,314
2013-3-27,62,53,44,43,35,28,67,52,37,30.29,30.24,30.20,10,10,10,13,9,20,0.00,0,,336
2013-3-28,66,57,48,45,41,32,87,59,32,30.31,30.26,30.22,10,10,10,13,6,16,0.00,0,,349
2013-3-29,71,62,53,48,45,39,77,57,35,30.33,30.27,30.24,10,10,7,14,5,20,0.00,1,,356
2013-3-30,73,63,53,55,49,45,94,65,36,30.29,30.24,30.19,10,9,7,16,3,21,0.00,1,,130
2013-3-31,80,68,55,64,57,52,88,73,44,30.21,30.14,30.06,10,10,7,22,5,17,0.00,1,,191